"Sample Date","Sample Time","Sample Value","Units","Flow Rate","Sample Interval","Number Channels","Micron Size 0","Counts/Channel 0","Micron Size 1","Counts/Channel 1","Micron Size 2","Counts/Channel 2","Micron Size 3","Counts/Channel 3","Micron Size 4","Counts/Channel 4","Micron Size 5","Counts/Channel 5","Micron Size 6","Counts/Channel 6","Micron Size 7","Counts/Channel 7","Micron Size 8","Counts/Channel 8","Micron Size 9","Counts/Channel 9","Micron Size 10","Counts/Channel 10","Micron Size 11","Counts/Channel 11","Micron Size 12","Counts/Channel 12","Micron Size 13","Counts/Channel 13","Micron Size 14","Counts/Channel 14","Micron Size 15","Counts/Channel 15","Micron Size 16","Counts/Channel 16","Micron Size 17","Counts/Channel 17","Micron Size 18","Counts/Channel 18","Micron Size 19","Counts/Channel 19","Micron Size 20","Counts/Channel 20","Micron Size 21","Counts/Channel 21","Micron Size 22","Counts/Channel 22","Micron Size 23","Counts/Channel 23","Micron Size 24","Counts/Channel 24","Micron Size 25","Counts/Channel 25","Micron Size 26","Counts/Channel 26","Micron Size 27","Counts/Channel 27","Micron Size 28","Counts/Channel 28","Micron Size 29","Counts/Channel 29","Micron Size 30","Counts/Channel 30","Micron Size 31","Counts/Channel 31"
"04/01/08","01:00:00",38560.000,"cc",28360.512,6.00,6,0.100,33232.000,0.200,3146.000,0.300,946.000,0.500,930.000,1.000,306.000,5.000,0
"04/01/08","01:00:06",36518.000,"cc",28228.414,6.00,6,0.100,31226.000,0.200,3080.000,0.300,933.000,0.500,968.000,1.000,311.000,5.000,0
"04/01/08","01:00:12",74447.000,"cc",28441.772,6.00,6,0.100,66585.000,0.200,5640.000,0.300,1027.000,0.500,907.000,1.000,288.000,5.000,0
"04/01/08","01:00:18",47644.000,"cc",28232.010,6.00,6,0.100,41824.000,0.200,3689.000,0.300,929.000,0.500,916.000,1.000,286.000,5.000,0
"04/01/08","01:00:24",159192.000,"cc",28334.824,6.00,6,0.100,144469.000,0.200,12146.000,0.300,1316.000,0.500,951.000,1.000,310.000,5.000,0
"04/01/08","01:00:30",348427.000,"cc",28302.635,6.00,6,0.100,314024.000,0.200,31102.000,0.300,2018.000,0.500,1005.000,1.000,278.000,5.000,0
"04/01/08","01:00:36",355749.000,"cc",28302.410,6.00,6,0.100,320208.000,0.200,31884.000,0.300,2159.000,0.500,1166.000,1.000,332.000,5.000,0
"04/01/08","01:00:42",167501.000,"cc",28336.006,6.00,6,0.100,120304.000,0.200,42781.000,0.300,2692.000,0.500,1311.000,1.000,413.000,5.000,0
"04/01/08","01:00:48",195434.000,"cc",28261.156,6.00,6,0.100,127806.000,0.200,62345.000,0.300,3521.000,0.500,1336.000,1.000,426.000,5.000,0
"04/01/08","01:00:54",166218.000,"cc",28337.773,6.00,6,0.100,106790.000,0.200,54571.000,0.300,3193.000,0.500,1295.000,1.000,369.000,5.000,0
"04/01/08","01:01:00",155341.000,"cc",28360.926,6.00,6,0.100,98437.000,0.200,52284.000,0.300,3024.000,0.500,1205.000,1.000,391.000,5.000,0
"04/01/08","01:01:06",147745.000,"cc",28319.725,6.00,6,0.100,93220.000,0.200,49948.000,0.300,2906.000,0.500,1275.000,1.000,396.000,5.000,0
"04/01/08","01:01:12",361409.000,"cc",28348.385,6.00,6,0.100,325438.000,0.200,32062.000,0.300,2315.000,0.500,1184.000,1.000,410.000,5.000,0
"04/01/08","01:01:18",233493.000,"cc",28302.832,6.00,6,0.100,212113.000,0.200,18122.000,0.300,1644.000,0.500,1231.000,1.000,383.000,5.000,0
"04/01/08","01:01:24",180222.000,"cc",28325.766,6.00,6,0.100,163742.000,0.200,13337.000,0.300,1537.000,0.500,1192.000,1.000,414.000,5.000,0
"04/01/08","01:01:30",165072.000,"cc",28288.570,6.00,6,0.100,149914.000,0.200,12018.000,0.300,1533.000,0.500,1217.000,1.000,390.000,5.000,0
"04/01/08","01:01:36",94102.000,"cc",28264.178,6.00,6,0.100,84068.000,0.200,7103.000,0.300,1286.000,0.500,1252.000,1.000,393.000,5.000,0
"04/01/08","01:01:42",95759.000,"cc",28279.041,6.00,6,0.100,85585.000,0.200,7221.000,0.300,1318.000,0.500,1203.000,1.000,432.000,5.000,0
"04/01/08","01:01:48",96506.000,"cc",28268.092,6.00,6,0.100,86525.000,0.200,7114.000,0.300,1299.000,0.500,1181.000,1.000,387.000,5.000,0
"04/01/08","01:01:54",87387.000,"cc",28374.867,6.00,6,0.100,78312.000,0.200,6380.000,0.300,1219.000,0.500,1094.000,1.000,382.000,5.000,0
"04/01/08","01:02:00",18591.000,"cc",28333.434,6.00,6,0.100,14774.000,0.200,1902.000,0.300,840.000,0.500,811.000,1.000,264.000,5.000,0
"04/01/08","01:02:06",61499.000,"cc",28293.328,6.00,6,0.100,54540.000,0.200,4604.000,0.300,1025.000,0.500,985.000,1.000,345.000,5.000,0
"04/01/08","01:02:12",24697.000,"cc",28337.674,6.00,6,0.100,20330.000,0.200,2210.000,0.300,852.000,0.500,986.000,1.000,319.000,5.000,0
"04/01/08","01:02:18",26844.000,"cc",28300.000,6.00,6,0.100,22225.000,0.200,2425.000,0.300,906.000,0.500,970.000,1.000,318.000,5.000,0
"04/01/08","01:02:24",19382.000,"cc",28299.291,6.00,6,0.100,15420.000,0.200,1929.000,0.300,857.000,0.500,905.000,1.000,271.000,5.000,0
"04/01/08","01:02:30",13196.000,"cc",28320.398,6.00,6,0.100,9555.000,0.200,1557.000,0.300,840.000,0.500,953.000,1.000,291.000,5.000,0
"04/01/08","01:02:36",11097.000,"cc",28291.316,6.00,6,0.100,7610.000,0.200,1413.000,0.300,864.000,0.500,896.000,1.000,314.000,5.000,0
"04/01/08","01:02:42",10580.000,"cc",28316.473,6.00,6,0.100,7200.000,0.200,1407.000,0.300,790.000,0.500,903.000,1.000,280.000,5.000,0
"04/01/08","01:02:48",10452.000,"cc",28293.852,6.00,6,0.100,7134.000,0.200,1386.000,0.300,775.000,0.500,897.000,1.000,260.000,5.000,0
"04/01/08","01:02:54",9983.000,"cc",28342.529,6.00,6,0.100,6566.000,0.200,1380.000,0.300,822.000,0.500,927.000,1.000,288.000,5.000,0
"04/01/08","01:03:00",10319.000,"cc",28333.367,6.00,6,0.100,7041.000,0.200,1272.000,0.300,811.000,0.500,892.000,1.000,303.000,5.000,0
"04/01/08","01:03:06",10455.000,"cc",28266.391,6.00,6,0.100,7098.000,0.200,1327.000,0.300,842.000,0.500,907.000,1.000,281.000,5.000,0
"04/01/08","01:03:12",10154.000,"cc",28345.389,6.00,6,0.100,6795.000,0.200,1354.000,0.300,841.000,0.500,848.000,1.000,316.000,5.000,0
"04/01/08","01:03:18",10863.000,"cc",28339.217,6.00,6,0.100,7254.000,0.200,1484.000,0.300,849.000,0.500,986.000,1.000,290.000,5.000,0
"04/01/08","01:03:24",10501.000,"cc",28350.492,6.00,6,0.100,7129.000,0.200,1387.000,0.300,811.000,0.500,879.000,1.000,295.000,5.000,0
"04/01/08","01:03:30",9948.000,"cc",28323.873,6.00,6,0.100,6622.000,0.200,1329.000,0.300,801.000,0.500,904.000,1.000,292.000,5.000,0
"04/01/08","01:03:36",10636.000,"cc",28259.482,6.00,6,0.100,7129.000,0.200,1435.000,0.300,846.000,0.500,912.000,1.000,314.000,5.000,0
"04/01/08","01:03:42",10908.000,"cc",28262.777,6.00,6,0.100,7550.000,0.200,1394.000,0.300,803.000,0.500,915.000,1.000,246.000,5.000,0
"04/01/08","01:03:48",10672.000,"cc",28328.746,6.00,6,0.100,7197.000,0.200,1405.000,0.300,872.000,0.500,912.000,1.000,286.000,5.000,0
"04/01/08","01:03:54",10239.000,"cc",28331.397,6.00,6,0.100,6757.000,0.200,1384.000,0.300,828.000,0.500,976.000,1.000,294.000,5.000,0
"04/01/08","01:04:00",10225.000,"cc",28355.934,6.00,6,0.100,6879.000,0.200,1390.000,0.300,800.000,0.500,874.000,1.000,282.000,5.000,0
"04/01/08","01:04:06",9916.000,"cc",28313.045,6.00,6,0.100,6613.000,0.200,1380.000,0.300,804.000,0.500,835.000,1.000,284.000,5.000,0
"04/01/08","01:04:12",9499.000,"cc",28265.660,6.00,6,0.100,6307.000,0.200,1292.000,0.300,789.000,0.500,826.000,1.000,285.000,5.000,0
"04/01/08","01:04:18",10216.000,"cc",28308.463,6.00,6,0.100,6885.000,0.200,1402.000,0.300,785.000,0.500,883.000,1.000,261.000,5.000,0
"04/01/08","01:04:24",9371.000,"cc",28341.697,6.00,6,0.100,6285.000,0.200,1238.000,0.300,752.000,0.500,821.000,1.000,275.000,5.000,0
"04/01/08","01:04:30",9484.000,"cc",28311.098,6.00,6,0.100,6325.000,0.200,1251.000,0.300,779.000,0.500,872.000,1.000,257.000,5.000,0
"04/01/08","01:04:36",9294.000,"cc",28257.914,6.00,6,0.100,6126.000,0.200,1288.000,0.300,780.000,0.500,825.000,1.000,275.000,5.000,0
"04/01/08","01:04:42",9579.000,"cc",28341.479,6.00,6,0.100,6414.000,0.200,1305.000,0.300,767.000,0.500,855.000,1.000,238.000,5.000,0
"04/01/08","01:04:48",9800.000,"cc",28374.795,6.00,6,0.100,6633.000,0.200,1274.000,0.300,775.000,0.500,820.000,1.000,298.000,5.000,0
"04/01/08","01:04:54",9851.000,"cc",28352.793,6.00,6,0.100,6556.000,0.200,1337.000,0.300,815.000,0.500,841.000,1.000,302.000,5.000,0
"04/01/08","01:05:00",9776.000,"cc",28281.266,6.00,6,0.100,6509.000,0.200,1338.000,0.300,795.000,0.500,859.000,1.000,275.000,5.000,0
"04/01/08","01:05:06",9731.000,"cc",28332.041,6.00,6,0.100,6511.000,0.200,1319.000,0.300,784.000,0.500,860.000,1.000,257.000,5.000,0
"04/01/08","01:05:12",10123.000,"cc",28285.600,6.00,6,0.100,6671.000,0.200,1418.000,0.300,842.000,0.500,900.000,1.000,292.000,5.000,0
"04/01/08","01:05:18",9931.000,"cc",28357.510,6.00,6,0.100,6512.000,0.200,1407.000,0.300,826.000,0.500,883.000,1.000,303.000,5.000,0
"04/01/08","01:05:24",9877.000,"cc",28350.893,6.00,6,0.100,6569.000,0.200,1354.000,0.300,812.000,0.500,881.000,1.000,261.000,5.000,0
"04/01/08","01:05:30",9943.000,"cc",28336.537,6.00,6,0.100,6517.000,0.200,1354.000,0.300,832.000,0.500,955.000,1.000,285.000,5.000,0
"04/01/08","01:05:36",9597.000,"cc",28284.295,6.00,6,0.100,6363.000,0.200,1268.000,0.300,782.000,0.500,886.000,1.000,298.000,5.000,0
"04/01/08","01:05:42",9979.000,"cc",28302.867,6.00,6,0.100,6550.000,0.200,1424.000,0.300,838.000,0.500,863.000,1.000,304.000,5.000,0
"04/01/08","01:05:48",10043.000,"cc",28333.031,6.00,6,0.100,6651.000,0.200,1432.000,0.300,832.000,0.500,848.000,1.000,280.000,5.000,0
"04/01/08","01:05:54",9690.000,"cc",28298.590,6.00,6,0.100,6368.000,0.200,1339.000,0.300,795.000,0.500,890.000,1.000,298.000,5.000,0
"04/01/08","01:06:00",10028.000,"cc",28240.678,6.00,6,0.100,6671.000,0.200,1342.000,0.300,826.000,0.500,896.000,1.000,293.000,5.000,0
"04/01/08","01:06:06",10080.000,"cc",28333.867,6.00,6,0.100,6743.000,0.200,1300.000,0.300,832.000,0.500,928.000,1.000,277.000,5.000,0
"04/01/08","01:06:12",9837.000,"cc",28303.022,6.00,6,0.100,6617.000,0.200,1331.000,0.300,778.000,0.500,830.000,1.000,281.000,5.000,0
"04/01/08","01:06:18",9977.000,"cc",28363.764,6.00,6,0.100,6634.000,0.200,1336.000,0.300,785.000,0.500,909.000,1.000,313.000,5.000,0
"04/01/08","01:06:24",9782.000,"cc",28321.719,6.00,6,0.100,6536.000,0.200,1336.000,0.300,790.000,0.500,849.000,1.000,271.000,5.000,0
"04/01/08","01:06:30",9847.000,"cc",28353.344,6.00,6,0.100,6408.000,0.200,1398.000,0.300,833.000,0.500,919.000,1.000,289.000,5.000,0
"04/01/08","01:06:36",9626.000,"cc",28303.301,6.00,6,0.100,6288.000,0.200,1359.000,0.300,815.000,0.500,893.000,1.000,271.000,5.000,0
"04/01/08","01:06:42",9097.000,"cc",28335.756,6.00,6,0.100,6086.000,0.200,1217.000,0.300,778.000,0.500,791.000,1.000,225.000,5.000,0
"04/01/08","01:06:48",9100.000,"cc",28265.576,6.00,6,0.100,6060.000,0.200,1221.000,0.300,767.000,0.500,796.000,1.000,256.000,5.000,0
"04/01/08","01:06:54",9184.000,"cc",28327.022,6.00,6,0.100,6148.000,0.200,1261.000,0.300,747.000,0.500,774.000,1.000,254.000,5.000,0
"04/01/08","01:07:00",9185.000,"cc",28374.106,6.00,6,0.100,6111.000,0.200,1247.000,0.300,730.000,0.500,838.000,1.000,259.000,5.000,0
"04/01/08","01:07:06",9076.000,"cc",28294.148,6.00,6,0.100,6012.000,0.200,1254.000,0.300,749.000,0.500,816.000,1.000,245.000,5.000,0
"04/01/08","01:07:12",9040.000,"cc",28273.164,6.00,6,0.100,5937.000,0.200,1220.000,0.300,771.000,0.500,831.000,1.000,281.000,5.000,0
"04/01/08","01:07:18",9184.000,"cc",28353.719,6.00,6,0.100,6104.000,0.200,1255.000,0.300,753.000,0.500,813.000,1.000,259.000,5.000,0
"04/01/08","01:07:24",9001.000,"cc",28270.551,6.00,6,0.100,6056.000,0.200,1193.000,0.300,714.000,0.500,791.000,1.000,247.000,5.000,0
"04/01/08","01:07:30",9027.000,"cc",28289.590,6.00,6,0.100,5987.000,0.200,1215.000,0.300,749.000,0.500,806.000,1.000,270.000,5.000,0
"04/01/08","01:07:36",9175.000,"cc",28321.533,6.00,6,0.100,6235.000,0.200,1221.000,0.300,709.000,0.500,773.000,1.000,237.000,5.000,0
"04/01/08","01:07:42",8942.000,"cc",28282.051,6.00,6,0.100,5834.000,0.200,1270.000,0.300,737.000,0.500,837.000,1.000,264.000,5.000,0
"04/01/08","01:07:48",9086.000,"cc",28339.023,6.00,6,0.100,6010.000,0.200,1252.000,0.300,739.000,0.500,830.000,1.000,255.000,5.000,0
"04/01/08","01:07:54",9478.000,"cc",28343.824,6.00,6,0.100,6396.000,0.200,1238.000,0.300,761.000,0.500,840.000,1.000,243.000,5.000,0
"04/01/08","01:08:00",9077.000,"cc",28251.598,6.00,6,0.100,6115.000,0.200,1215.000,0.300,752.000,0.500,755.000,1.000,240.000,5.000,0
"04/01/08","01:08:06",9311.000,"cc",28299.111,6.00,6,0.100,6263.000,0.200,1276.000,0.300,731.000,0.500,778.000,1.000,263.000,5.000,0
"04/01/08","01:08:12",8963.000,"cc",28341.123,6.00,6,0.100,5963.000,0.200,1250.000,0.300,705.000,0.500,786.000,1.000,259.000,5.000,0
"04/01/08","01:08:18",8801.000,"cc",28333.074,6.00,6,0.100,5839.000,0.200,1211.000,0.300,697.000,0.500,811.000,1.000,243.000,5.000,0
"04/01/08","01:08:24",8987.000,"cc",28349.795,6.00,6,0.100,5929.000,0.200,1246.000,0.300,744.000,0.500,810.000,1.000,258.000,5.000,0
"04/01/08","01:08:30",9040.000,"cc",28284.463,6.00,6,0.100,6032.000,0.200,1261.000,0.300,726.000,0.500,751.000,1.000,270.000,5.000,0
"04/01/08","01:08:36",9183.000,"cc",28373.076,6.00,6,0.100,6105.000,0.200,1249.000,0.300,739.000,0.500,820.000,1.000,270.000,5.000,0
"04/01/08","01:08:42",9190.000,"cc",28266.566,6.00,6,0.100,6084.000,0.200,1283.000,0.300,743.000,0.500,805.000,1.000,275.000,5.000,0
"04/01/08","01:08:48",9101.000,"cc",28234.516,6.00,6,0.100,6066.000,0.200,1289.000,0.300,726.000,0.500,781.000,1.000,239.000,5.000,0
"04/01/08","01:08:54",9355.000,"cc",28336.440,6.00,6,0.100,6235.000,0.200,1264.000,0.300,752.000,0.500,804.000,1.000,300.000,5.000,0
"04/01/08","01:09:00",9471.000,"cc",28382.143,6.00,6,0.100,6347.000,0.200,1322.000,0.300,699.000,0.500,857.000,1.000,246.000,5.000,0
"04/01/08","01:09:06",9587.000,"cc",28344.078,6.00,6,0.100,6322.000,0.200,1368.000,0.300,810.000,0.500,816.000,1.000,271.000,5.000,0
"04/01/08","01:09:12",9625.000,"cc",28359.721,6.00,6,0.100,6304.000,0.200,1365.000,0.300,791.000,0.500,887.000,1.000,278.000,5.000,0
"04/01/08","01:09:18",9973.000,"cc",28272.109,6.00,6,0.100,6585.000,0.200,1428.000,0.300,825.000,0.500,861.000,1.000,274.000,5.000,0
"04/01/08","01:09:24",9510.000,"cc",28309.773,6.00,6,0.100,6362.000,0.200,1283.000,0.300,759.000,0.500,835.000,1.000,271.000,5.000,0
"04/01/08","01:09:30",9691.000,"cc",28284.656,6.00,6,0.100,6481.000,0.200,1324.000,0.300,754.000,0.500,850.000,1.000,282.000,5.000,0
"04/01/08","01:09:36",9793.000,"cc",28370.209,6.00,6,0.100,6556.000,0.200,1326.000,0.300,761.000,0.500,900.000,1.000,250.000,5.000,0
"04/01/08","01:09:42",9558.000,"cc",28265.756,6.00,6,0.100,6414.000,0.200,1297.000,0.300,723.000,0.500,863.000,1.000,261.000,5.000,0
"04/01/08","01:09:48",9549.000,"cc",28327.373,6.00,6,0.100,6399.000,0.200,1260.000,0.300,727.000,0.500,868.000,1.000,295.000,5.000,0
"04/01/08","01:09:54",9479.000,"cc",28279.643,6.00,6,0.100,6286.000,0.200,1314.000,0.300,754.000,0.500,883.000,1.000,242.000,5.000,0
"04/01/08","01:10:00",9561.000,"cc",28389.342,6.00,6,0.100,6323.000,0.200,1287.000,0.300,810.000,0.500,847.000,1.000,294.000,5.000,0
"04/01/08","01:10:06",9200.000,"cc",28316.275,6.00,6,0.100,6144.000,0.200,1271.000,0.300,723.000,0.500,823.000,1.000,239.000,5.000,0
"04/01/08","01:10:12",9362.000,"cc",28329.986,6.00,6,0.100,6131.000,0.200,1346.000,0.300,770.000,0.500,820.000,1.000,295.000,5.000,0
"04/01/08","01:10:18",9173.000,"cc",28238.232,6.00,6,0.100,6171.000,0.200,1235.000,0.300,688.000,0.500,807.000,1.000,272.000,5.000,0
"04/01/08","01:10:24",9411.000,"cc",28376.207,6.00,6,0.100,6226.000,0.200,1356.000,0.300,737.000,0.500,828.000,1.000,264.000,5.000,0
"04/01/08","01:10:30",9365.000,"cc",28255.027,6.00,6,0.100,6227.000,0.200,1365.000,0.300,730.000,0.500,816.000,1.000,227.000,5.000,0
"04/01/08","01:10:36",9262.000,"cc",28339.481,6.00,6,0.100,6112.000,0.200,1339.000,0.300,734.000,0.500,820.000,1.000,257.000,5.000,0
"04/01/08","01:10:42",9530.000,"cc",28339.049,6.00,6,0.100,6392.000,0.200,1242.000,0.300,728.000,0.500,863.000,1.000,305.000,5.000,0
"04/01/08","01:10:48",9182.000,"cc",28318.047,6.00,6,0.100,6098.000,0.200,1279.000,0.300,763.000,0.500,772.000,1.000,270.000,5.000,0
"04/01/08","01:10:54",9411.000,"cc",28336.422,6.00,6,0.100,6207.000,0.200,1309.000,0.300,767.000,0.500,859.000,1.000,269.000,5.000,0
"04/01/08","01:11:00",9489.000,"cc",28266.375,6.00,6,0.100,6215.000,0.200,1343.000,0.300,808.000,0.500,829.000,1.000,294.000,5.000,0
"04/01/08","01:11:06",9801.000,"cc",28381.469,6.00,6,0.100,6364.000,0.200,1475.000,0.300,799.000,0.500,855.000,1.000,308.000,5.000,0
"04/01/08","01:11:12",9666.000,"cc",28322.303,6.00,6,0.100,6369.000,0.200,1378.000,0.300,775.000,0.500,862.000,1.000,282.000,5.000,0
"04/01/08","01:11:18",9775.000,"cc",28293.240,6.00,6,0.100,6486.000,0.200,1419.000,0.300,720.000,0.500,859.000,1.000,291.000,5.000,0
"04/01/08","01:11:24",9890.000,"cc",28364.897,6.00,6,0.100,6634.000,0.200,1295.000,0.300,790.000,0.500,893.000,1.000,278.000,5.000,0
"04/01/08","01:11:30",9981.000,"cc",28312.574,6.00,6,0.100,6582.000,0.200,1381.000,0.300,826.000,0.500,911.000,1.000,281.000,5.000,0
"04/01/08","01:11:36",9984.000,"cc",28298.119,6.00,6,0.100,6632.000,0.200,1430.000,0.300,724.000,0.500,927.000,1.000,271.000,5.000,0
"04/01/08","01:11:42",10050.000,"cc",28305.010,6.00,6,0.100,6552.000,0.200,1389.000,0.300,810.000,0.500,1006.000,1.000,293.000,5.000,0
"04/01/08","01:11:48",10076.000,"cc",28317.465,6.00,6,0.100,6642.000,0.200,1384.000,0.300,791.000,0.500,965.000,1.000,294.000,5.000,0
"04/01/08","01:11:54",9811.000,"cc",28358.617,6.00,6,0.100,6460.000,0.200,1389.000,0.300,748.000,0.500,903.000,1.000,311.000,5.000,0
"04/01/08","01:12:00",9637.000,"cc",28292.979,6.00,6,0.100,6260.000,0.200,1372.000,0.300,782.000,0.500,924.000,1.000,299.000,5.000,0
"04/01/08","01:12:06",9883.000,"cc",28288.354,6.00,6,0.100,6486.000,0.200,1404.000,0.300,797.000,0.500,902.000,1.000,294.000,5.000,0
"04/01/08","01:12:12",10036.000,"cc",28293.600,6.00,6,0.100,6595.000,0.200,1487.000,0.300,794.000,0.500,896.000,1.000,264.000,5.000,0
"04/01/08","01:12:18",9966.000,"cc",28290.797,6.00,6,0.100,6480.000,0.200,1440.000,0.300,870.000,0.500,856.000,1.000,320.000,5.000,0
"04/01/08","01:12:24",9982.000,"cc",28347.869,6.00,6,0.100,6676.000,0.200,1325.000,0.300,792.000,0.500,907.000,1.000,282.000,5.000,0
"04/01/08","01:12:30",9979.000,"cc",28363.893,6.00,6,0.100,6539.000,0.200,1490.000,0.300,752.000,0.500,892.000,1.000,306.000,5.000,0
"04/01/08","01:12:36",10047.000,"cc",28320.863,6.00,6,0.100,6629.000,0.200,1379.000,0.300,799.000,0.500,904.000,1.000,336.000,5.000,0
"04/01/08","01:12:42",9937.000,"cc",28301.205,6.00,6,0.100,6599.000,0.200,1332.000,0.300,797.000,0.500,889.000,1.000,320.000,5.000,0
"04/01/08","01:12:48",9727.000,"cc",28280.135,6.00,6,0.100,6399.000,0.200,1390.000,0.300,783.000,0.500,872.000,1.000,283.000,5.000,0
"04/01/08","01:12:54",9651.000,"cc",28346.615,6.00,6,0.100,6360.000,0.200,1364.000,0.300,788.000,0.500,875.000,1.000,264.000,5.000,0
"04/01/08","01:13:00",9973.000,"cc",28309.815,6.00,6,0.100,6525.000,0.200,1388.000,0.300,821.000,0.500,932.000,1.000,307.000,5.000,0
"04/01/08","01:13:06",9701.000,"cc",28360.986,6.00,6,0.100,6395.000,0.200,1342.000,0.300,797.000,0.500,892.000,1.000,275.000,5.000,0
"04/01/08","01:13:12",9732.000,"cc",28263.063,6.00,6,0.100,6358.000,0.200,1359.000,0.300,837.000,0.500,897.000,1.000,281.000,5.000,0
"04/01/08","01:13:18",9748.000,"cc",28291.074,6.00,6,0.100,6469.000,0.200,1363.000,0.300,786.000,0.500,840.000,1.000,290.000,5.000,0
"04/01/08","01:13:24",9825.000,"cc",28293.252,6.00,6,0.100,6469.000,0.200,1416.000,0.300,765.000,0.500,873.000,1.000,302.000,5.000,0
"04/01/08","01:13:30",9857.000,"cc",28354.750,6.00,6,0.100,6512.000,0.200,1353.000,0.300,800.000,0.500,855.000,1.000,337.000,5.000,0
"04/01/08","01:13:36",9916.000,"cc",28321.557,6.00,6,0.100,6576.000,0.200,1417.000,0.300,770.000,0.500,882.000,1.000,271.000,5.000,0
"04/01/08","01:13:42",9987.000,"cc",28271.660,6.00,6,0.100,6610.000,0.200,1326.000,0.300,812.000,0.500,942.000,1.000,297.000,5.000,0
"04/01/08","01:13:48",9819.000,"cc",28366.176,6.00,6,0.100,6417.000,0.200,1431.000,0.300,844.000,0.500,861.000,1.000,266.000,5.000,0
"04/01/08","01:13:54",9872.000,"cc",28408.299,6.00,6,0.100,6540.000,0.200,1416.000,0.300,769.000,0.500,873.000,1.000,274.000,5.000,0
"04/01/08","01:14:00",9872.000,"cc",28267.098,6.00,6,0.100,6485.000,0.200,1407.000,0.300,835.000,0.500,875.000,1.000,270.000,5.000,0
"04/01/08","01:14:06",9547.000,"cc",28277.315,6.00,6,0.100,6313.000,0.200,1324.000,0.300,777.000,0.500,828.000,1.000,305.000,5.000,0
"04/01/08","01:14:12",9642.000,"cc",28308.209,6.00,6,0.100,6357.000,0.200,1326.000,0.300,782.000,0.500,891.000,1.000,286.000,5.000,0
"04/01/08","01:14:18",9568.000,"cc",28273.357,6.00,6,0.100,6312.000,0.200,1359.000,0.300,728.000,0.500,889.000,1.000,280.000,5.000,0
"04/01/08","01:14:24",9859.000,"cc",28329.336,6.00,6,0.100,6497.000,0.200,1449.000,0.300,798.000,0.500,850.000,1.000,265.000,5.000,0
"04/01/08","01:14:30",9842.000,"cc",28363.129,6.00,6,0.100,6507.000,0.200,1373.000,0.300,776.000,0.500,874.000,1.000,312.000,5.000,0
"04/01/08","01:14:36",9994.000,"cc",28309.150,6.00,6,0.100,6578.000,0.200,1443.000,0.300,838.000,0.500,852.000,1.000,283.000,5.000,0
"04/01/08","01:14:42",9674.000,"cc",28349.215,6.00,6,0.100,6337.000,0.200,1389.000,0.300,804.000,0.500,862.000,1.000,282.000,5.000,0
"04/01/08","01:14:48",9732.000,"cc",28289.398,6.00,6,0.100,6461.000,0.200,1351.000,0.300,781.000,0.500,868.000,1.000,271.000,5.000,0
"04/01/08","01:14:54",9538.000,"cc",28283.490,6.00,6,0.100,6354.000,0.200,1336.000,0.300,737.000,0.500,805.000,1.000,306.000,5.000,0
"04/01/08","01:15:00",9414.000,"cc",28366.566,6.00,6,0.100,6347.000,0.200,1232.000,0.300,741.000,0.500,826.000,1.000,268.000,5.000,0
"04/01/08","01:15:06",9379.000,"cc",28356.381,6.00,6,0.100,6314.000,0.200,1304.000,0.300,716.000,0.500,780.000,1.000,265.000,5.000,0
"04/01/08","01:15:12",9481.000,"cc",28305.807,6.00,6,0.100,6320.000,0.200,1318.000,0.300,759.000,0.500,820.000,1.000,264.000,5.000,0
"04/01/08","01:15:18",9299.000,"cc",28293.922,6.00,6,0.100,6209.000,0.200,1294.000,0.300,708.000,0.500,820.000,1.000,268.000,5.000,0
"04/01/08","01:15:24",9433.000,"cc",28328.076,6.00,6,0.100,6321.000,0.200,1284.000,0.300,754.000,0.500,797.000,1.000,277.000,5.000,0
"04/01/08","01:15:30",9556.000,"cc",28364.125,6.00,6,0.100,6362.000,0.200,1330.000,0.300,721.000,0.500,851.000,1.000,292.000,5.000,0
"04/01/08","01:15:36",9662.000,"cc",28324.918,6.00,6,0.100,6529.000,0.200,1302.000,0.300,716.000,0.500,844.000,1.000,271.000,5.000,0
"04/01/08","01:15:42",9242.000,"cc",28312.098,6.00,6,0.100,6200.000,0.200,1331.000,0.300,687.000,0.500,773.000,1.000,251.000,5.000,0
"04/01/08","01:15:48",9620.000,"cc",28309.492,6.00,6,0.100,6340.000,0.200,1358.000,0.300,817.000,0.500,808.000,1.000,297.000,5.000,0
"04/01/08","01:15:54",9661.000,"cc",28320.537,6.00,6,0.100,6413.000,0.200,1357.000,0.300,766.000,0.500,837.000,1.000,288.000,5.000,0
"04/01/08","01:16:00",9355.000,"cc",28375.391,6.00,6,0.100,6229.000,0.200,1303.000,0.300,731.000,0.500,833.000,1.000,259.000,5.000,0
"04/01/08","01:16:06",9713.000,"cc",28315.775,6.00,6,0.100,6385.000,0.200,1334.000,0.300,788.000,0.500,907.000,1.000,299.000,5.000,0
"04/01/08","01:16:12",9549.000,"cc",28343.268,6.00,6,0.100,6259.000,0.200,1379.000,0.300,767.000,0.500,849.000,1.000,295.000,5.000,0
"04/01/08","01:16:18",9635.000,"cc",28246.981,6.00,6,0.100,6275.000,0.200,1403.000,0.300,793.000,0.500,883.000,1.000,281.000,5.000,0
"04/01/08","01:16:24",9552.000,"cc",28323.395,6.00,6,0.100,6357.000,0.200,1289.000,0.300,770.000,0.500,837.000,1.000,299.000,5.000,0
"04/01/08","01:16:30",9808.000,"cc",28372.945,6.00,6,0.100,6555.000,0.200,1332.000,0.300,765.000,0.500,855.000,1.000,301.000,5.000,0
"04/01/08","01:16:36",9706.000,"cc",28330.430,6.00,6,0.100,6384.000,0.200,1396.000,0.300,784.000,0.500,852.000,1.000,290.000,5.000,0
"04/01/08","01:16:42",9807.000,"cc",28301.098,6.00,6,0.100,6482.000,0.200,1418.000,0.300,781.000,0.500,829.000,1.000,297.000,5.000,0